Regional Weather Roundup
Issued by NWS Charleston, SC

Current Version | Previous Version | Graphics & Text | Print | Product List | Glossary On
Versions: 1 2 3 4 5 6 7 8 9 10 11 12 13 14 15 16 17 18 19 20 21 22 23 24 25 26 27 28 29 30 31 32 33 34 35 36 37 38 39 40 41 42 43 44 45 46 47 48 49 50
000
ASUS42 KCHS 241512
RWRCHS

REGIONAL WEATHER ROUNDUP
NATIONAL WEATHER SERVICE CHARLESTON SC
1100 AM EDT FRI MAR 24 2017

NOTE: "FAIR" INDICATES FEW OR NO CLOUDS BELOW 12,000 FEET WITH NO
SIGNIFICANT WEATHER AND/OR OBSTRUCTIONS TO VISIBILITY.

NOT ALL STATIONS ARE QUALITY CONTROLLED. USE DATA WITH CAUTION...
ESPECIALLY DEWPOINT OBSERVATIONS.

SCZ027-030-031-034>040-042>050-241600-
...SOUTHEAST SOUTH CAROLINA...

CITY           SKY/WX    TMP DP  RH WIND       PRES   REMARKS
N CHARLESTON   MOSUNNY   69  49  48 SE9       30.49S
WATERFRONT PRK   N/A     64  55  72 CALM      30.48S
JOHNS ISLAND   FAIR      70  52  52 E10       30.49S
PINOPOLIS        N/A     55  52  88 VRB2      30.40S
MONCKS CORNER  FAIR      64  46  52 S6        30.49S
SUMMERVILLE    FAIR      64  50  59 E5        30.50S
BEAUFORT MCAS  MOSUNNY   68  54  60 VRB3      30.48S
BEAUFORT ARPT  FAIR      64  54  68 NE5       30.48S
HILTON HEAD IS SUNNY     64  54  68 NE7       30.48S
WALTERBORO     SUNNY     64  50  59 SE3       30.50S
ALLENDALE      FAIR      64  50  59 E7        30.48R

...SOUTHERN MIDLANDS AND PEE DEE...

CITY           SKY/WX    TMP DP  RH WIND       PRES   REMARKS
GEORGETOWN     FAIR      64  52  63 SE7       30.52R
KINGSTREE      FAIR      63  45  51 SE6       30.50S
ORANGEBURG     SUNNY     62  49  62 VRB5      30.50S
BARNWELL       FAIR      64  50  59 VRB5      30.49S
AIKEN          FAIR      61  46  59 E7        30.51S
MANNING        FAIR      63  43  48 S5        30.50S
COLUMBIA       MOSUNNY   59  45  59 SE5       30.50S
SUMTER         MOSUNNY   61  46  57 SE5       30.48S
FLORENCE       SUNNY     61  47  59 S6        30.51S
MYRTLE BEACH   SUNNY     59  48  67 SE9       30.52S
N MYRTLE BEACH SUNNY     61  49  64 SE8       30.51S

$$

GAZ063-065-086>088-099>101-113>116-118-119-134>141-150-241600-
...SOUTHEAST GEORGIA...

CITY           SKY/WX    TMP DP  RH WIND       PRES   REMARKS
SAVANNAH ARPT  SUNNY     69  51  52 E12       30.47S
HUNTER AAF     SUNNY     71  55  58 E9        30.44S
FORT STEWART   SUNNY     70  50  50 E10       30.43S
STATESBORO     SUNNY     67  51  56 SE6       30.47R
SYLVANIA       SUNNY    N/A N/A N/A SE7       30.48S
CLAXTON        FAIR      68  64  86 E5        30.46S

...CSRA...CENTRAL AND FAR SOUTHEAST GEORGIA...

CITY           SKY/WX    TMP DP  RH WIND       PRES   REMARKS
THOMSON        MOSUNNY   61  45  56 E3        30.53S
AUGUSTA-BUSH   SUNNY     64  48  56 SE3       30.48S
AUGUSTA-DANIEL SUNNY     62  45  53 SE8       30.48S
SWAINSBORO     FAIR      66  50  55 SE13      30.47R
VIDALIA        SUNNY     68  52  56 SE9       30.45S
EASTMAN        FAIR      69  41  35 SE7       30.47S
HAZLEHURST     FAIR      68  55  64 SE7       30.43S
ALMA           SUNNY     67  53  61 E9        30.43S
WAYCROSS       SUNNY     72  58  61 SE9G16    30.43S
JESUP          FAIR      70  52  52 SE9       30.44S
BAXLEY         FAIR      68  57  68 SE6       30.44S
BRUNSWICK      SUNNY     72  55  56 E17       30.44S
SAINT SIMONS   SUNNY     69  55  60 E13       30.43S

$$

SCZ027-028-034-036>038-045-046-048>050-GAZ119-141-241600-
...LAKE AND SUPPLEMENTAL COASTAL OBSERVATIONS...

STATION/POSITION TIME  TEMP    WIND        PRES    WAVE   SWELL
                       AIR SEA DIR/SP/G            HT/PER HT/PER/DIR
                 (UTC) (F)     (DEG/KT/KT) (MB)    (FT/S) (FT/S/D)
WINYAH BAY       1345   56      60/ 10     1033.0
LAKE MURRAY      1420   54      80/  3/  4 1032.5
ACE BASIN NERRS  NOT AVBL
FORT PULASKI     1448   62 60   70/  8/ 10 1032.0R
SAPELO ISLAND    1400   69      90/  8     1031.0

$$

ANZ835-935-AMZ111-154-330-350-352-354-370-450-454-472-241600-
...C-MAN AND BUOY OBSERVATIONS...

STATION/POSITION TIME  TEMP    WIND        PRES    WAVE   SWELL
                       AIR SEA DIR/SP/G            HT/PER HT/PER/DIR
                 (UTC) (F)     (DEG/KT/KT) (MB)    (FT/S) (FT/S/D)
BUOY 41004       1350   68 71  110/ 12/ 16 1031.6    5/ 6   3/120/ 6
BUOY 41008       1350   64 62   80/  4/  6 1030.6    5/ 7   5/100/ 7
FOLLY BEACH CMAN 1400   59      40/ 10/ 12 1032.8R
CAPERS NEARSHORE 1408   59      60/ 12/ 16 1032.2R
FRIPP NEARSHORE  1408   59 59   30/ 10/ 12 1031.7R


STATION/POSITION TIME  TEMP    WIND        PRES    WAVE   SWELL
                       AIR SEA DIR/SP/G            HT/PER HT/PER/DIR
                 (UTC) (F)     (DEG/KT/KT) (MB)    (FT/S) (FT/S/D)
5E ST. MARYS GA  1430      63                N/A     5/ 9   2/ 90/11
FRYING PAN BUOY  1450   66 71  130/ 10/ 16 1033.2R   4/ 8   3/ 90/ 8
BUOY 41025       1450   61 75  180/ 14/ 16 1034.3S   5/ 8   5/ 60/ 8
CAPE LOOKOUT NC  1400   55      50/  5/  5 1033.6R
BUOY 41002       1450   63 73   70/ 14/ 19 1033.3R   6/10   5/ 20/10
BUOY 41010       NOT AVBL
ST AUGUSTINE FL  1500   67 65  100/ 15/ 16 1030.4S


$$




USA.gov is the U.S. government's official web portal to all federal, state and local government web resources and services.